www.pogodaiklimat.ru

Погода и климат >> Архив погоды >> Россия >> Крым >> Нижнегорский


ПОГОДА в Нижнегорском

  • Прогноз погоды в Нижнегорском
  • Монитор погоды в Нижнегорском
  • Климат города

АРХИВ ПОГОДЫ в Нижнегорском

Время (UTC), дата Ветер
(напр.,м/с)
 
Видим.   Явления Облачность Т
(С)
Тd
(С)
f
(%)
Тe
(С)
Тes
(С)
Комфортность P
(гПа)
Po
(гПа)
Тmin
(С)
Tmax
(С)
R
(мм)
R24
(мм)
S
(см)
00 14.02 В 1 4000 м дымка 10/10 600 м
[Sc]
-0.1 -2.5 84 -2 -2 1019.6 1017.1
03 14.02 В 2 4000 м дымка 10/10 600 м
[Sc]
-0.2 -2.6 84 -4 -4 1020.1 1017.6 -0.2
06 14.02 В 3 4000 м дымка 10/10 600 м
[Sc]
+0.2 -2.4 83 -4 -4 1020.2 1017.7 -0.2
09 14.02 В 4 4000 м дымка 10/10 600 м
[Sc]
+1.8 -2 -2 1020.5 1018.0
12 14.02 В 6
{10}
4000 м дымка 9/9 600 м
[Sc]
+3.0 +0.9 86 -3 -3 1019.0 1016.5
15 14.02 В 6
{10}
4000 м дымка 10/10 600 м
[Sc]
+3.2 +1.7 90 -3 -3 1018.5 1016.0
18 14.02 В 6
{11}
4000 м дымка 10/10 600 м
[Sc]
+3.4 +1.9 90 -2 -2 1018.4 1015.9 +3.5
21 14.02 В 6
{10}
4000 м дымка 10/10 600 м
[Sc]
+3.0 +1.5 90 -3 -3 1018.8 1016.3
00 15.02 В 6
{10}
4000 м дымка 10/10 600 м
[Sc]
+3.2 +1.1 86 -3 -3 1018.9 1016.4
03 15.02 В 6 20 км 9/9 600 м
[Sc]
+2.4 -0.3 82 -3 -3 1018.5 1016.0 +2.4
06 15.02 В 4 4000 м дымка 9/9 600 м
[Sc]
+2.4 +1.4 93 -3 -3 1019.1 1016.6 +2.4
09 15.02 В 5 4000 м дымка {ливн. осадки} 8/6 600 м
[Sc Ac trans]
+1.0 +3.8 100 -5 -4 1020.5 1018.0
12 15.02 В 5 4000 м дымка {ливн. осадки} 8/4 600 м
[Cu Sc Ac trans Ci fib]
+8.6 +6.4 86 +5 +6 1021.0 1018.5
15 15.02 В 4 4000 м слабый ливневой дождь 10/10 600 м
[Cb cap]
+4.8 +3.1 89 +1 +1 1021.3 1018.8 0.0
18 15.02 В 2 4000 м дымка {ливн. осадки} 10/10 600 м
[Sc]
+3.7 +2.5 92 +1 +1 1023.4 1020.9 +8.9 1
21 15.02 В 2 200 м туман ?/? +3.4 +3.4 100 0 0 1024.1 1021.6
00 16.02 В 3 500 м туман ?/? +3.3 +3.3 100 -1 -1 1024.8 1022.3
03 16.02 СВ 2 500 м слабая морось {туман} туман ?/? +2.4 +2.4 100 -1 -1 1025.4 1022.9 +2.2 2
06 16.02 В 3 200 м туман {морось} ?/? +1.8 +1.8 100 -3 -3 1025.8 1023.3 +1.6 0.7
09 16.02 В 4 200 м туман {морось} ?/? +2.7 +2.7 100 -2 -2 1026.1 1023.6
12 16.02 В 3 2000 м дымка {морось, туман} 10/10 300 м
[St]
+4.5 +4.3 99 +1 +1 1025.6 1023.1
15 16.02 СВ 3 2000 м дымка 10/10 300 м
[St]
+2.1 +1.6 96 -2 -2 1025.2 1022.7 0.4
18 16.02 СВ 3 500 м туман ?/? +0.7 +0.7 100 -4 -4 1025.4 1022.9 +4.5 0.0
21 16.02 В 3 200 м туман ?/? +1.1 +1.1 100 -4 -4 1025.5 1023.0
00 17.02 В 3 200 м туман ?/? +1.0 +1.0 100 -4 -4 1024.3 1021.8
03 17.02 СВ 1 500 м туман ?/? +0.8 +0.8 100 -1 -1 1023.8 1021.3 +0.6
06 17.02 С 2 500 м слабая морось {туман} туман ?/? +0.8 +0.8 100 -3 -3 1023.9 1021.4 +0.6 0.0
09 17.02 СВ 2 2000 м дымка {морось, туман} 10/10 300 м
[St]
+0.9 +0.6 98 -3 -3 1023.3 1020.8
12 17.02 С 2 4000 м слабый дождь {туман} 10/6 300 м
[Frnb As op]
+1.2 +0.4 94 -2 -2 1023.0 1020.5
15 17.02 СЗ 4 4000 м слабый дождь {снег} 10/0 300 м
[As op]
+0.4 -0.1 96 -5 -5 1023.0 1020.5 1
18 17.02 З 3 4000 м дымка {снег, дождь} 10/10 600 м
[Sc]
+1.1 +0.3 94 -4 -4 1023.1 1020.6 +1.2 2
21 17.02 З 3 4000 м дымка 10/10 300 м
[Sc]
+1.4 +0.3 92 -3 -3 1022.9 1020.4
00 18.02 З 3 4000 м дымка 10/10 300 м
[Sc]
+2.0 +1.2 94 -2 -2 1022.8 1020.3
03 18.02 С 3 4000 м дымка 10/10 300 м
[Sc]
+1.7 +1.2 96 -3 -3 1022.8 1020.3 +1.0 0.3
06 18.02 СЗ 3 2000 м в посл. час туман 10/10 300 м
[St]
+1.4 +0.9 96 -3 -3 1023.3 1020.8 +1.0
09 18.02 С 1 4000 м дымка 10/10 600 м
[Sc]
+1.2 -0.7 87 -1 -1 1023.3 1020.8
12 18.02 СЗ 1 20 км 10/10 600 м
[Sc]
+3.7 -1.6 68 +3 +3 1022.7 1020.2
15 18.02 С 2 20 км 9/6 600 м
[Sc Ac trans]
+3.4 -2.2 67 +1 +1 1022.3 1019.8
18 18.02 штиль 0 20 км 10/0
[Ac As]
+1.8 -0.4 85 +1 +1 1022.5 1020.0 +4.5
21 18.02 штиль 0 20 км 10/0
[Ac As]
+1.4 -0.5 87 0 0 1022.5 1020.0
00 19.02 штиль 0 4000 м дымка 8/0
[Ac trans]
+1.2 -0.2 90 0 0 1022.4 1019.9
03 19.02 штиль 0 4000 м дымка 10/0
[Ac As]
+0.2 -0.9 92 -1 -1 1022.3 1019.8 -0.1
06 19.02 штиль 0 4000 м дымка 6/0
[Ac trans]
-0.6 -1.8 92 -2 -0 1022.9 1020.4 -0.6
09 19.02 ЮЗ 1 20 км 9/9 600 м
[]
+4.4 -1.6 65 +3 +4 1023.0 1020.5
12 19.02 СЗ 1 20 км 9/6 600 м
[Cu hum Ac trans Ci fib]
+5.1 -2.4 58 +4 +6 1023.1 1020.6
15 19.02 С 1 20 км 8/0
[Ci sp]
+4.4 -2.3 62 +3 +3 1023.1 1020.6
18 19.02 штиль 0 20 км 8/0
[Ci sp]
+1.8 -2.6 73 +1 +1 1023.3 1020.8 +5.5
21 19.02 С 1 20 км 8/0
[Ci sp]
+0.5 -4.2 71 -1 -1 1023.0 1020.5
00 20.02 СВ 2 20 км 8/0
[Ci sp]
-1.4 -4.1 82 -5 -5 1023.0 1020.4
03 20.02 СВ 2 20 км 10/0
[Ac As]
-0.3 -3.4 80 -4 -4 1022.8 1020.3 -1.6
06 20.02 СВ 3 20 км 9/9 600 м
[Sc]
+0.2 -3.5 76 -4 -4 1023.5 1021.0 -1.6
09 20.02 СВ 5 20 км 10/10 600 м
[Sc]
+1.3 -2.2 77 -4 -4 1023.5 1021.0
12 20.02 СВ 6 7 баллов 69 1021.3
15 20.02 В 3 9 баллов 76 1021.3
18 20.02 СВ 2 ясно 78 1021.3
21 20.02 СВ 3 5 баллов 79 1020.0

 

Местоположение метеостанции Нижнегорский (Крым, Россия): широта 45.45 долгота 34.73 высота над уровнем моря 20 м.

В архиве по умолчанию представлена погода в Нижнегорском за последнюю неделю. Архивные данные за месяц целиком и за предыдущие месяцы, начиная с января 2011 года, Вы можете получить, выбрав интересующий диапазон дат из раскрывающегося списка и нажав кнопку "Ввод!".

Внимание! Время в таблицах - всемирное. Для получения местного времени необходимо прибавить поправку, которая в Нижнегорском равна 3 ч.

Смотрите также архив погоды в соседних городах и на ближайших метеорологических станциях:

Погода в Стрелковом (Херсонская область, Украина) (18 км)
Погода в Джанкое (Крым, Россия) (40 км)
Погода в Клепинино (Крым, Россия) (44 км)
Погода в Белогорске (Крым, Россия) (46 км)
Погода в Владиславовке (Крым, Россия) (60 км)
Погода в Феодосии (Крым, Россия) (69 км)
Погода в Карадаге (Крым, Россия) (71 км)
Погода в Симферополе город (Крым, Россия) (73 км)
Погода в Симферополе (Крым, Россия) (76 км)
Погода в Геническе (Херсонская область, Украина) (80 км)

Пояснения к столбцам:

Ветер - указаны скорость ветра в м/с - средняя за 10 мин, порывы в срок и между сроками (в фигурных скобках) и направление, откуда дует ветер: С - северный, СВ - северо-восточный, В - восточный, ЮВ - юго-восточный, Ю - южный, ЮЗ - юго-западный, З - западный, СЗ - северо-западный.
Видимость - горизонтальная дальность видимости в метрах или километрах. При видимости от 1 до 10 км при отсутствии осадков обычно наблюдается дымка, при ухудшении видимости до 1 км и менее - туман. В сухую погоду видимость может ухудшаться дымом, пылью или мглою.
Явления - указаны атмосферные явления, наблюдавшиеся в срок или в последний час перед сроком; фигурными скобками обозначены явления, наблюдавшиеся между сроками (за 1-3 часа до срока); квадратными скобками обозначены град или гололедные отложения с указанием их диаметра в мм.
Облачность - указаны через наклонную черту общая и нижняя облачность в баллах и высота нижней границы облаков в метрах; квадратными скобками обозначены формы облаков: Ci - перистые, Cs - перисто-слоистые, Cc - перисто-кучевые, Ac - высококучевые, As - высокослоистые, Sc - слоисто-кучевые, Ns - слоисто-дождевые, Cu - кучевые, Cb - кучево-дождевые. Подробнее классификацию облаков см. в Атласе облаков (PDF).
T - Температура воздуха - температура, измеренная на высоте 2 м над землей.
Td - Температура точки росы - температура, при понижении до которой содержащийся в воздухе водяной пар достигнет насыщения.
f - Относительная влажность воздуха - влажноcть воздуха, измеренная на высоте 2 м над землей.
Te - Эффективная температура - температура, которую ощущает одетый по сезону человек в тени. Характеристика душности погоды. При расчете учитывается влияние влажности воздуха и скорости ветра на теплоощущения человека.
Tes - Эффективная температура на солнце - температура, которую ощущает человек, с поправкой на солнечный нагрев. Характеристика знойности погоды. Зависит от высоты солнца над горизонтом, облачности и скорости ветра. Ночью, в пасмурную погоду, а также при ветре 12 м/с и более поправка равна нулю.
P - Атмосферное давление - приведенное к уровню моря атмосферное давление.
Po - Атмосферное давление - измеренное на уровне метеостанции атмосферное давление.
Tmin - Минимальная температура - минимум температуры воздуха на высоте 2 м над землей.
Tmax - Максимальная температура - максимум температуры воздуха на высоте 2 м над землей.
R - Количество осадков - Количество выпавших осадков за период времени, мм. При наведении курсора мыши на число - период времени, за который выпало указанное количество осадков.
R24 - Количество осадков - Количество выпавших осадков за 24 часа, мм.
S - Снежный покров - Высота снежного покрова, см. При наведении курсора мыши на число - состояние снежного покрова и степень покрытия местности в баллах.